This demonstration page uses our WeatherBlox Daily Observations layout. Learn more.

Left ArrowRight Arrow

34.02893, -84.19858

Hourly Observations for November 25, 2022

Temp ( °F °C ) Dew Point ( °F °C ) Humidity (%) Winds ( mph kmh ) Pressure ( in mb ) Visibility ( mi km ) Precip ( " mm )
12:53 am 00:53 Cloudy with Light Rain 51 10.6 46 7.8 83 83 VRB 3 6 30.15 1021 7 11 0.03 0.76
1:53 am 01:53 Cloudy with Light Rain 51 10.6 49 9.4 92 92 Calm 30.16 1021 7 11 0.05 1.27
2:20 am 02:20 Cloudy with Light Rain 50 10 48 8.9 93 93 Calm 30.18 1022 8 13 0.03 0.76
2:31 am 02:31 Cloudy with Light Rain 51 10.6 48 8.9 89 89 Calm 30.19 1022 9 14 0.04 1.02
2:53 am 02:53 Cloudy with Light Rain 50 10 48 8.9 93 93 NNE 5 7 30.16 1021 8 13 0.05 1.27
3:53 am 03:53 Cloudy with Light Rain 50 10 47 8.3 89 89 N 5 7 30.15 1021 9 14 0.03 0.76
4:15 am 04:15 Cloudy with Light Rain 50 10 46 7.8 86 86 NNE 6 9 30.14 1021 5 8 0.03 0.76
4:53 am 04:53 Cloudy 49 9.4 47 8.3 93 93 Calm 30.10 1019 10 16 0.05 1.27
5:53 am 05:53 Cloudy 49 9.4 47 8.3 93 93 Calm 30.09 1019 10 16 0.00 0.00
6:53 am 06:53 Cloudy 49 9.4 47 8.3 93 93 Calm 30.08 1019 10 16 0.00 0.00
7:53 am 07:53 Cloudy 50 10 47 8.3 89 89 Calm 30.09 1019 10 16 0.00 0.00
8:53 am 08:53 Cloudy 51 10.6 48 8.9 89 89 N 5 7 30.11 1020 10 16 0.00 0.00
9:49 am 09:49 Cloudy 52 11 48 9 87 87 N 7 11 30.14 1021 10 16 0.00 0.00
9:53 am 09:53 Cloudy 53 11.7 49 9.4 86 86 N 6 9 30.13 1020 10 16 0.00 0.00
10:00 am 10:00 Cloudy 53 11.7 49 9.4 86 86 N 7 11 30.14 1021 10 16 0.00 0.00
10:17 am 10:17 Cloudy 53 11.7 50 10 89 89 NNW 7 11 30.14 1021 8 13 0.00 0.00
10:53 am 10:53 Cloudy 54 12.2 51 10.6 90 90 NNW 3 6 30.13 1020 8 13 0.00 0.00
11:07 am 11:07 Cloudy 55 12.8 52 11.1 89 89 NW 6 9 30.13 1020 10 16 0.00 0.00
11:53 am 11:53 Cloudy 59 15 54 12.2 83 83 NNW 6 9 30.10 1019 10 16 0.00 0.00
12:53 pm 12:53 Mostly Cloudy 62 16.7 55 12.8 78 78 Calm 30.06 1018 10 16 0.00 0.00
1:53 pm 13:53 Mostly Sunny 64 17.8 55 12.8 73 73 W 5 7 30.03 1017 10 16 0.00 0.00
2:53 pm 14:53 Sunny 65 18.3 55 12.8 70 70 WNW 8 13 30.02 1017 10 16 0.00 0.00
3:53 pm 15:53 Sunny 65 18.3 54 12.2 68 68 NW 9 15 30.03 1017 10 16 0.00 0.00
4:53 pm 16:53 Sunny 63 17.2 54 12.2 72 72 NNW 7 11 30.04 1017 10 16 0.00 0.00
5:53 pm 17:53 Clear 60 15.6 53 11.7 78 78 NW 7 11 30.06 1018 10 16 0.00 0.00
6:53 pm 18:53 Clear 59 15 52 11.1 77 77 NW 8 13 30.07 1018 10 16 0.00 0.00
7:53 pm 19:53 Clear 57 13.9 51 10.6 80 80 NW 6 9 30.08 1019 10 16 0.00 0.00
8:53 pm 20:53 Clear 54 12.2 49 9.4 83 83 N 3 6 30.10 1019 10 16 0.00 0.00
9:53 pm 21:53 Clear 52 11.1 48 8.9 86 86 N 5 7 30.10 1019 10 16 0.00 0.00
10:53 pm 22:53 Clear 51 10.6 48 8.9 89 89 NE 3 6 30.11 1020 10 16 0.00 0.00
11:53 pm 23:53 Clear 49 9.4 47 8.3 93 93 Calm 30.12 1020 10 16 0.00 0.00

Powered by AerisWeather